Wind_Speed
13 15 18 20 22 23 23 25 28 29 29 31 32 32 33 35 36 35 35 35 34 33 33 33 33 33 32 32 32 31 30 29 29 28 28 27 26 26
11 13 15 17 19 21 22 23 26 28 29 30 31 32 33 34 35 36 36 36 36 35 34 33 33 34 33 33 33 32 31 31 30 29 29 29 28 28
10 11 13 15 17 19 21 22 24 25 27 28 30 30 30 33 34 35 35 35 36 36 36 35 34 35 34 34 34 34 33 33 31 31 30 30 30 30
7 9 11 13 15 18 20 22 23 24 25 27 28 29 29 31 32 33 34 34 35 36 37 37 36 35 36 36 35 35 34 34 34 33 32 32 32 32
6 7 9 11 13 15 18 21 23 24 24 26 26 27 27 29 31 32 33 33 34 35 36 37 36 35 36 36 36 36 35 35 34 34 34 33 33 32
5 5 7 8 10 12 15 17 20 22 23 24 25 25 26 27 28 30 30 32 34 35 35 36 37 36 35 35 36 36 36 36 36 35 35 34 34 33
6 6 5 6 8 10 11 13 16 19 21 22 23 24 24 25 26 28 29 29 30 32 33 34 35 35 35 35 36 36 36 37 37 37 36 35 34 34
8 7 6 6 6 8 10 12 13 16 18 19 21 22 23 25 26 27 28 28 28 29 31 32 33 33 34 35 36 36 36 37 37 37 36 36 36 35
9 8 7 6 6 7 8 10 11 13 16 18 20 20 22 24 24 25 27 27 27 28 29 31 32 33 33 34 35 36 37 37 37 37 37 37 37 37
10 9 8 7 7 7 8 9 10 12 15 17 19 20 20 21 23 24 25 26 27 28 28 30 31 32 33 33 34 36 37 38 38 37 37 37 36 36
10 10 9 9 8 8 8 9 10 12 13 14 17 19 19 20 21 22 23 24 24 26 27 28 30 32 33 33 33 34 36 36 37 37 36 35 35 35
11 10 10 10 10 10 10 10 11 11 12 13 15 17 18 19 20 21 22 23 24 25 26 27 29 31 32 32 33 33 34 34 35 36 36 35 34 34
13 12 12 11 11 11 11 11 12 13 13 14 15 17 18 19 20 20 21 22 23 25 26 27 28 29 30 30 31 32 33 33 33 34 35 35 36 35
14 13 13 13 12 12 12 12 12 13 13 15 15 16 18 19 20 21 22 22 23 24 26 26 27 28 29 30 30 31 31 32 32 33 34 35 35 35
15 15 14 14 14 13 13 13 13 14 14 15 16 17 18 19 20 21 22 23 24 24 26 26 27 28 29 29 30 30 30 31 31 32 33 33 33 32
17 16 16 16 15 15 15 15 16 16 17 17 17 18 19 19 20 21 22 22 23 24 25 26 27 28 28 29 29 30 30 30 31 33 34 34 33 33
19 19 18 18 18 17 17 18 18 18 19 19 20 20 21 21 22 22 23 24 24 25 25 26 26 26 27 28 29 30 30 31 31 32 33 34 34 34
21 21 21 21 21 21 21 21 21 21 21 22 22 23 23 23 24 24 25 26 26 26 27 27 27 27 27 27 28 29 29 30 31 31 31 31 32 32
23 22 22 22 23 23 23 23 24 24 24 24 24 25 25 26 26 26 27 27 27 27 27 28 28 29 29 29 29 29 30 30 30 31 32 31 31 31
25 25 24 24 24 24 25 25 26 27 27 27 27 27 27 28 28 29 29 29 30 29 30 30 30 30 30 31 30 31 31 31 31 31 30 31 32 32
27 27 27 27 27 27 28 28 29 29 29 30 30 30 30 30 31 31 31 31 31 31 32 32 32 32 32 32 32 32 33 32 32 32 31 31 32 32
30 30 30 29 30 30 31 32 32 32 32 33 33 34 34 34 34 34 34 34 34 34 34 33 34 34 34 34 34 34 34 34 34 34 33 33 32 32
32 33 33 33 34 34 34 35 35 35 36 37 37 37 38 38 38 38 38 38 38 38 38 37 36 36 37 37 37 36 36 36 35 34 34 34 34 33
Wind_Direction
238 238 236 237 238 238 237 234 232 232 234 234 232 232 234 236 236 237 239 239 239 241 242 244 246 246 246 248 249 249 251 253 255 256 257 259 261 264
240 240 236 235 237 237 236 234 233 233 234 234 233 233 235 238 238 239 241 242 242 242 243 245 246 247 248 247 247 248 250 252 254 256 257 259 260 262
248 243 238 236 236 236 235 234 234 234 235 234 235 233 236 238 239 240 242 242 243 244 245 245 247 247 247 248 247 247 250 252 254 255 258 260 261 262
259 249 242 239 239 237 236 235 235 234 234 234 236 235 236 237 239 240 241 242 244 246 247 247 248 248 249 249 249 249 251 253 254 255 258 260 261 262
296 272 257 251 246 243 240 238 237 235 235 236 236 236 239 238 238 241 242 243 244 246 246 248 249 251 251 251 253 253 253 255 256 257 258 259 261 263
319 296 272 258 252 249 245 242 241 238 238 239 239 239 241 242 242 243 244 245 244 245 247 248 250 251 253 252 254 254 254 255 257 257 259 260 261 262
334 320 296 276 260 253 250 245 242 241 240 241 241 243 243 245 245 247 247 248 248 247 248 248 250 250 251 252 252 253 253 254 256 256 257 259 260 262
346 334 317 299 282 266 258 252 248 246 245 244 244 246 246 247 247 249 251 252 253 253 250 249 250 250 251 252 252 251 251 253 254 255 257 258 260 262
350 342 331 314 297 282 271 263 256 254 252 249 248 250 248 248 248 250 252 253 256 256 253 251 252 253 253 253 253 253 252 252 253 254 256 258 259 261
348 343 336 325 312 297 283 274 266 262 258 255 253 252 252 252 252 253 255 256 258 258 258 255 254 254 255 255 255 255 254 253 253 254 257 258 259 261
344 339 333 326 317 309 297 283 274 270 266 261 260 257 257 257 258 258 259 259 258 260 261 259 256 257 257 256 256 256 255 255 255 255 257 260 259 260
338 334 330 324 315 308 300 292 285 280 276 271 267 264 262 260 261 261 261 260 260 261 262 262 260 258 257 256 256 256 256 255 254 253 255 257 258 260
333 330 326 321 316 311 305 299 292 287 283 279 275 271 267 266 264 262 262 263 263 264 264 264 263 261 258 256 257 257 257 256 254 253 253 255 256 258
326 324 324 319 313 310 307 303 299 294 290 286 281 278 273 271 269 266 265 266 267 267 266 265 263 261 260 258 257 258 259 257 255 255 255 255 255 256
319 318 317 318 315 307 302 301 298 295 292 290 286 281 277 274 273 272 271 270 269 269 268 267 265 263 262 259 257 257 258 258 256 256 256 255 255 257
311 309 308 308 307 305 301 298 295 294 292 291 288 284 282 280 278 277 275 274 275 273 271 269 268 267 264 261 259 257 258 259 258 257 258 258 258 258
306 303 301 298 298 297 296 294 292 292 291 290 288 286 284 282 281 279 277 276 275 274 273 271 269 268 267 264 262 261 260 261 260 259 260 258 257 258
304 301 298 295 293 292 291 291 290 289 287 286 285 285 284 282 280 278 277 276 275 275 274 272 269 268 266 265 264 262 261 262 263 262 261 258 257 258
301 300 297 294 292 290 289 288 288 287 286 284 282 282 282 282 281 279 277 276 276 275 274 273 271 268 266 265 265 264 263 262 263 263 262 260 259 258
299 298 296 293 291 290 288 288 287 286 285 284 283 282 281 280 280 279 278 277 276 275 273 273 272 270 267 266 265 265 265 264 263 262 262 261 261 259
297 297 296 293 291 290 289 288 287 286 285 284 283 282 281 280 279 279 278 277 276 275 273 272 272 271 269 267 267 266 265 264 262 262 261 261 261 259
295 294 294 293 291 290 289 288 287 285 284 283 282 281 281 280 279 278 277 276 275 274 273 272 270 269 268 267 267 266 264 262 261 261 260 259 258 258
294 293 292 291 290 290 289 288 287 286 284 283 282 281 280 279 278 277 276 275 274 273 272 271 270 269 268 267 266 265 264 262 261 260 259 259 258 257
Height
5753 5755 5757 5760 5762 5765 5768 5771 5775 5779 5783 5786 5790 5794 5798 5802 5805 5809 5812 5815 5819 5821 5824 5827 5829 5832 5834 5836 5838 5840 5842 5843 5845 5846 5847 5848 5849 5849
5751 5752 5754 5756 5758 5760 5763 5766 5769 5773 5776 5780 5784 5787 5791 5795 5798 5801 5804 5808 5811 5814 5817 5819 5822 5824 5826 5829 5831 5833 5834 5836 5837 5839 5840 5841 5842 5842
5748 5749 5751 5752 5754 5756 5759 5761 5764 5767 5771 5774 5777 5781 5784 5788 5790 5793 5796 5800 5803 5806 5809 5811 5814 5816 5818 5820 5823 5825 5827 5829 5830 5831 5832 5833 5834 5835
5746 5747 5748 5749 5750 5752 5754 5756 5759 5762 5765 5768 5771 5774 5777 5780 5783 5786 5789 5792 5795 5797 5800 5803 5805 5808 5810 5812 5814 5817 5819 5820 5822 5823 5824 5826 5827 5827
5744 5744 5745 5746 5747 5748 5750 5752 5754 5756 5759 5762 5765 5768 5771 5773 5776 5779 5782 5784 5786 5789 5792 5794 5797 5799 5801 5803 5805 5808 5810 5812 5813 5814 5816 5817 5818 5819
5744 5743 5743 5744 5744 5745 5746 5747 5749 5752 5754 5757 5759 5762 5765 5767 5770 5772 5774 5776 5778 5781 5783 5786 5788 5790 5792 5795 5797 5799 5801 5802 5804 5805 5807 5808 5809 5810
5743 5742 5742 5742 5742 5742 5743 5744 5746 5748 5750 5752 5754 5757 5759 5761 5763 5765 5767 5769 5771 5772 5775 5777 5779 5782 5783 5785 5787 5789 5791 5793 5795 5797 5798 5799 5800 5801
5743 5741 5741 5740 5740 5740 5741 5742 5743 5744 5746 5747 5749 5751 5753 5755 5757 5758 5760 5762 5764 5766 5767 5769 5770 5773 5774 5776 5778 5780 5781 5784 5785 5787 5789 5790 5791 5792
5742 5741 5740 5739 5738 5738 5739 5739 5740 5740 5742 5743 5744 5745 5747 5749 5750 5752 5753 5755 5757 5757 5759 5761 5762 5764 5765 5767 5768 5770 5772 5774 5776 5778 5779 5781 5782 5783
5742 5741 5739 5738 5737 5737 5737 5737 5737 5737 5738 5739 5739 5740 5741 5742 5744 5745 5746 5748 5749 5750 5752 5753 5754 5755 5756 5758 5759 5761 5762 5764 5766 5768 5769 5771 5772 5773
5742 5740 5739 5737 5736 5735 5735 5734 5734 5734 5734 5734 5734 5735 5736 5737 5738 5739 5740 5742 5743 5743 5744 5745 5746 5747 5748 5749 5750 5751 5752 5754 5756 5758 5759 5761 5762 5763
5741 5739 5737 5736 5735 5734 5733 5732 5732 5731 5731 5730 5730 5730 5730 5731 5732 5733 5734 5735 5736 5736 5736 5737 5738 5738 5739 5740 5741 5742 5743 5745 5746 5748 5750 5751 5752 5753
5739 5737 5736 5734 5733 5732 5730 5730 5729 5728 5727 5727 5726 5726 5726 5726 5726 5727 5727 5728 5729 5729 5729 5729 5730 5730 5731 5732 5732 5733 5734 5735 5737 5738 5740 5741 5743 5744
5737 5735 5734 5732 5730 5729 5728 5727 5726 5725 5724 5723 5722 5722 5721 5721 5721 5721 5721 5721 5721 5721 5721 5721 5722 5722 5722 5723 5724 5724 5725 5726 5727 5729 5730 5732 5733 5734
5735 5733 5731 5729 5727 5726 5725 5724 5723 5721 5720 5719 5718 5717 5717 5716 5716 5715 5715 5715 5714 5714 5714 5714 5714 5714 5714 5715 5715 5716 5717 5718 5718 5720 5721 5723 5724 5725
5731 5729 5727 5726 5724 5722 5721 5720 5719 5717 5716 5715 5714 5712 5712 5711 5710 5709 5709 5708 5708 5707 5706 5706 5706 5706 5706 5706 5707 5708 5708 5709 5710 5711 5712 5714 5715 5716
5726 5724 5723 5721 5719 5718 5716 5715 5714 5712 5711 5710 5709 5707 5706 5705 5704 5703 5702 5701 5701 5700 5699 5698 5698 5698 5698 5698 5699 5700 5700 5701 5701 5702 5703 5704 5705 5707
5721 5719 5717 5715 5714 5712 5711 5709 5708 5706 5705 5704 5703 5701 5700 5699 5697 5696 5695 5694 5694 5693 5692 5691 5690 5690 5690 5690 5691 5691 5691 5692 5692 5693 5693 5694 5696 5697
5715 5713 5711 5709 5707 5706 5704 5703 5701 5700 5698 5696 5695 5694 5693 5691 5690 5689 5688 5686 5686 5685 5684 5683 5682 5682 5682 5682 5682 5682 5682 5683 5683 5684 5684 5686 5687 5688
5707 5705 5703 5702 5700 5698 5696 5695 5693 5692 5690 5688 5687 5686 5684 5683 5682 5680 5679 5678 5677 5676 5675 5675 5674 5673 5673 5673 5673 5673 5673 5673 5674 5674 5675 5676 5677 5678
5700 5697 5695 5693 5692 5690 5688 5686 5684 5683 5681 5679 5678 5676 5674 5673 5672 5671 5669 5668 5667 5666 5666 5665 5664 5663 5663 5663 5664 5664 5663 5663 5664 5665 5666 5667 5668 5669
5691 5689 5687 5684 5682 5680 5678 5676 5674 5672 5670 5669 5667 5665 5664 5662 5661 5660 5658 5657 5656 5655 5655 5654 5653 5653 5653 5653 5653 5653 5653 5653 5654 5654 5655 5657 5657 5659
5681 5679 5676 5674 5672 5669 5667 5665 5663 5661 5659 5657 5655 5653 5651 5650 5648 5647 5646 5645 5644 5643 5642 5642 5641 5641 5641 5641 5641 5641 5642 5642 5642 5643 5645 5646 5647 5649